Location: Tamazert
(32.6352°N, 5.2072°W)
Time: 14:54:55
(UTC+00:00)

A-11 Canister half - Visible Passes

Search period start: 26 September 2022 00:00
Search period end: 06 October 2022 00:00
Orbit: 1524 x 1684 km, 47.3° (Epoch: 25 September)

Date Brightness Start Highest point End Pass type
(mag) Time Alt. Az. Time Alt. Az. Time Alt. Az.
26 Sep 10.1 19:52:58 10° WNW 20:01:17 33° N 20:07:52 16° NE visible
26 Sep 9.9 21:59:25 10° NW 22:06:07 39° NNW 22:06:07 39° NNW visible
27 Sep 10.1 19:31:10 10° WNW 19:39:29 33° N 19:47:05 13° NE visible
27 Sep 9.8 21:37:43 10° NW 21:45:21 42° N 21:45:21 42° N visible
27 Sep 11.1 23:42:47 10° NW 23:43:37 13° NW 23:43:37 13° NW visible
28 Sep 10.1 19:09:22 10° WNW 19:17:40 34° N 19:26:12 10° ENE visible
28 Sep 9.7 21:16:01 10° NW 21:24:35 42° NNE 21:24:35 42° NNE visible
28 Sep 10.9 23:21:06 10° NW 23:22:51 17° NW 23:22:51 17° NW visible
29 Sep 10.1 18:47:34 10° WNW 18:55:52 34° N 19:04:23 10° NE visible
29 Sep 9.6 20:54:18 10° NW 21:03:13 41° NNE 21:03:51 41° NNE visible
29 Sep 10.7 22:59:24 10° NW 23:02:07 22° NW 23:02:07 22° NW visible
30 Sep 10.1 18:25:45 10° WNW 18:34:04 34° N 18:42:35 10° NE visible
30 Sep 9.6 20:32:36 10° NW 20:41:26 40° NNE 20:43:07 38° NE visible
30 Sep 10.4 22:37:43 10° NW 22:41:24 28° NW 22:41:24 28° NW visible
01 Oct 9.7 20:10:54 10° NW 20:19:38 39° NNE 20:22:25 33° NE visible
01 Oct 10.2 22:16:02 10° NW 22:20:42 34° NW 22:20:42 34° NW visible
02 Oct 9.8 19:49:10 10° NW 19:57:51 38° NNE 20:01:46 28° ENE visible
02 Oct 9.8 21:54:20 10° NW 22:00:02 42° NW 22:00:02 42° NW visible
03 Oct 9.8 19:27:28 10° NW 19:36:04 37° NNE 19:41:08 23° ENE visible
03 Oct 9.5 21:32:40 10° NW 21:39:25 52° NW 21:39:25 52° NW visible
04 Oct 9.8 19:05:44 10° NW 19:14:16 37° NNE 19:20:31 18° ENE visible
04 Oct 9.2 21:10:59 10° NW 21:18:49 63° NNW 21:18:49 63° NNW visible
04 Oct 11.2 23:16:46 10° WNW 23:17:06 11° WNW 23:17:06 11° WNW visible
05 Oct 9.8 18:44:00 10° NW 18:52:29 36° NNE 18:59:59 14° ENE visible
05 Oct 9.0 20:49:18 10° NW 20:58:16 72° N 20:58:16 72° N visible
05 Oct 11.0 22:54:58 10° WNW 22:56:34 16° WNW 22:56:34 16° WNW visible
